View from above orbital plane
|
View from above satellite
|
Ground track
|
The orbit data is extracted from the following two-line orbital elements,
1 43937U 19003F 21023.54826968 .00001532 00000-0 63484-4 0 9995
2 43937 97.1983 72.4232 0024123 162.2869 197.9216 15.25111774112172
Epoch (UTC): | 23 January 2021 13:09:30 |
Eccentricity: | 0.0024123 |
inclination: | 97.1983° |
perigee height: | 474 km |
apogee height: | 507 km |
right ascension of ascending node: | 72.4232° |
argument of perigee: | 162.2869° |
revolutions per day: | 15.25111774 |
mean anomaly at epoch: | 197.9216° |
orbit number at epoch: | 11217 |
The dashed part of the orbit path shows where the satellite is in the earth's shadow,
|
|